Previsão horária em Abay (Syrdarinskiy rayon)

Hoje, 14 Abril, Quarta-feira

Tempo Temperatura Precipitação Vento Pressão Humidade
00:00 +15°C° 0 mm 5 m/s 754 mmHg 30%
01:00 +15°C° 0 mm 6 m/s 754 mmHg 28%
02:00 +15°C° 0 mm 7 m/s 754 mmHg 30%
03:00 +15°C° 0 mm 8 m/s 754 mmHg 33%
04:00 +15°C° 0 mm 8 m/s 754 mmHg 35%
05:00 +15°C° 0 mm 9 m/s 754 mmHg 37%
06:00 +15°C° 0 mm 9 m/s 755 mmHg 39%
07:00 +14°C° 0 mm 10 m/s 755 mmHg 41%
08:00 +16°C° 0 mm 10 m/s 755 mmHg 38%
09:00 +16°C° 0 mm 11 m/s 755 mmHg 35%
10:00 +17°C° 0 mm 11 m/s 754 mmHg 33%
11:00 +18°C° 0 mm 12 m/s 754 mmHg 29%
12:00 +19°C° 0 mm 12 m/s 754 mmHg 26%
13:00 +21°C° 0 mm 12 m/s 753 mmHg 23%
14:00 +21°C° 0 mm 12 m/s 753 mmHg 21%
15:00 +21°C° 0 mm 12 m/s 753 mmHg 18%
16:00 +21°C° 0 mm 12 m/s 752 mmHg 16%
17:00 +19°C° 0 mm 12 m/s 752 mmHg 17%
18:00 +18°C° 0 mm 11 m/s 752 mmHg 17%
19:00 +18°C° 0 mm 11 m/s 752 mmHg 18%
20:00 +17°C° 0 mm 10 m/s 752 mmHg 18%
21:00 +16°C° 0 mm 10 m/s 752 mmHg 18%
22:00 +16°C° 0 mm 10 m/s 751 mmHg 19%
23:00 +15°C° 0 mm 9 m/s 751 mmHg 19%

Amanhã, 15 Abril, Quinta-feira

Tempo Temperatura Precipitação Vento Pressão Humidade
00:00 +15°C° 0 mm 9 m/s 750 mmHg 20%
01:00 +13°C° 0 mm 8 m/s 750 mmHg 21%
02:00 +12°C° 0 mm 9 m/s 750 mmHg 29%
03:00 +12°C° 0 mm 9 m/s 749 mmHg 28%
04:00 +12°C° 0 mm 9 m/s 749 mmHg 27%
05:00 +12°C° 0.1 mm 9 m/s 749 mmHg 29%
06:00 +12°C° 0.1 mm 9 m/s 749 mmHg 31%
07:00 +12°C° 0.1 mm 9 m/s 749 mmHg 33%
08:00 +15°C° 0.1 mm 8 m/s 749 mmHg 30%
09:00 +17°C° 0.1 mm 8 m/s 749 mmHg 27%
10:00 +18°C° 0.1 mm 8 m/s 748 mmHg 25%
11:00 +21°C° 0 mm 7 m/s 748 mmHg 25%
12:00 +22°C° 0 mm 6 m/s 748 mmHg 25%
13:00 +23°C° 0 mm 5 m/s 747 mmHg 24%
14:00 +16°C° 0 mm 9 m/s 749 mmHg 31%
15:00 +20°C° 0 mm 8 m/s 749 mmHg 30%
16:00 +22°C° 0 mm 8 m/s 748 mmHg 28%
17:00 +21°C° 0 mm 7 m/s 748 mmHg 34%
18:00 +19°C° 0 mm 6 m/s 748 mmHg 39%
19:00 +18°C° 0 mm 4 m/s 748 mmHg 45%
20:00 +17°C° 0 mm 3 m/s 748 mmHg 48%
21:00 +17°C° 0 mm 2 m/s 748 mmHg 51%
22:00 +16°C° 0 mm 1 m/s 748 mmHg 54%
23:00 +16°C° 0 mm 1 m/s 747 mmHg 54%

Depois de amanhã, 16 Abril, Sexta-feira

Tempo Temperatura Precipitação Vento Pressão Humidade
00:00 +15°C° 0 mm 2 m/s 747 mmHg 54%
01:00 +15°C° 0 mm 2 m/s 747 mmHg 54%
02:00 +14°C° 0 mm 3 m/s 747 mmHg 52%
03:00 +13°C° 0 mm 3 m/s 747 mmHg 49%
04:00 +13°C° 0 mm 3 m/s 747 mmHg 47%
05:00 +14°C° 0 mm 3 m/s 747 mmHg 43%
06:00 +16°C° 0 mm 3 m/s 747 mmHg 40%
07:00 +17°C° 0 mm 3 m/s 748 mmHg 36%
08:00 +18°C° 0 mm 4 m/s 748 mmHg 31%
09:00 +20°C° 0 mm 4 m/s 748 mmHg 26%
10:00 +22°C° 0 mm 5 m/s 748 mmHg 22%
11:00 +23°C° 0 mm 5 m/s 748 mmHg 20%
12:00 +25°C° 0 mm 5 m/s 748 mmHg 17%
13:00 +26°C° 0 mm 6 m/s 748 mmHg 15%
14:00 +26°C° 0 mm 6 m/s 748 mmHg 15%
15:00 +26°C° 0 mm 6 m/s 748 mmHg 14%
16:00 +26°C° 0 mm 6 m/s 748 mmHg 14%
17:00 +25°C° 0 mm 5 m/s 748 mmHg 15%
18:00 +23°C° 0 mm 4 m/s 748 mmHg 17%
19:00 +22°C° 0 mm 3 m/s 749 mmHg 19%
20:00 +21°C° 0 mm 3 m/s 749 mmHg 20%
21:00 +20°C° 0 mm 2 m/s 749 mmHg 21%
22:00 +19°C° 0 mm 2 m/s 749 mmHg 22%
23:00 +19°C° 0 mm 2 m/s 748 mmHg 23%

17 Abril, Sábado

Tempo Temperatura Precipitação Vento Pressão Humidade
00:00 +18°C° 0 mm 2 m/s 748 mmHg 24%
01:00 +18°C° 0 mm 2 m/s 748 mmHg 25%
02:00 +17°C° 0 mm 2 m/s 748 mmHg 26%
03:00 +17°C° 0 mm 2 m/s 748 mmHg 26%
04:00 +17°C° 0 mm 2 m/s 749 mmHg 27%
05:00 +18°C° 0 mm 2 m/s 749 mmHg 26%
06:00 +18°C° 0 mm 2 m/s 749 mmHg 26%
07:00 +20°C° 0 mm 1 m/s 749 mmHg 25%
08:00 +21°C° 0 mm 2 m/s 749 mmHg 23%
09:00 +23°C° 0 mm 2 m/s 749 mmHg 21%
10:00 +25°C° 0 mm 2 m/s 749 mmHg 19%
11:00 +26°C° 0 mm 3 m/s 749 mmHg 18%
12:00 +26°C° 0 mm 4 m/s 749 mmHg 18%
13:00 +27°C° 0 mm 5 m/s 749 mmHg 17%
14:00 +27°C° 0 mm 5 m/s 748 mmHg 17%
15:00 +27°C° 0 mm 5 m/s 748 mmHg 17%
16:00 +27°C° 0 mm 6 m/s 748 mmHg 17%
17:00 +26°C° 0.1 mm 5 m/s 748 mmHg 19%
18:00 +25°C° 0.1 mm 4 m/s 748 mmHg 21%
19:00 +24°C° 0.1 mm 3 m/s 748 mmHg 24%
20:00 +22°C° 0 mm 4 m/s 748 mmHg 28%
21:00 +21°C° 0 mm 4 m/s 748 mmHg 33%
22:00 +19°C° 0 mm 5 m/s 748 mmHg 38%
23:00 +18°C° 0 mm 4 m/s 748 mmHg 40%

18 Abril, Domingo

Tempo Temperatura Precipitação Vento Pressão Humidade
00:00 +18°C° 0 mm 4 m/s 748 mmHg 42%
01:00 +17°C° 0 mm 3 m/s 747 mmHg 43%
02:00 +17°C° 0 mm 3 m/s 747 mmHg 44%
03:00 +16°C° 0 mm 3 m/s 747 mmHg 45%
04:00 +16°C° 0 mm 3 m/s 747 mmHg 46%
05:00 +16°C° 0 mm 3 m/s 748 mmHg 44%
06:00 +17°C° 0 mm 4 m/s 748 mmHg 43%
07:00 +17°C° 0 mm 4 m/s 748 mmHg 42%
08:00 +19°C° 0 mm 5 m/s 748 mmHg 40%
09:00 +20°C° 0 mm 5 m/s 748 mmHg 37%
10:00 +21°C° 0 mm 6 m/s 748 mmHg 35%
11:00 +22°C° 0 mm 6 m/s 749 mmHg 33%
12:00 +22°C° 0 mm 7 m/s 749 mmHg 30%
13:00 +23°C° 0 mm 8 m/s 749 mmHg 28%
14:00 +23°C° 0 mm 8 m/s 749 mmHg 26%
15:00 +23°C° 0 mm 8 m/s 750 mmHg 24%
16:00 +22°C° 0 mm 9 m/s 750 mmHg 22%
17:00 +21°C° 0 mm 8 m/s 750 mmHg 24%
18:00 +20°C° 0 mm 7 m/s 751 mmHg 26%
19:00 +19°C° 0 mm 6 m/s 751 mmHg 28%
20:00 +17°C° 0 mm 5 m/s 752 mmHg 31%
21:00 +17°C° 0 mm 4 m/s 752 mmHg 33%
22:00 +17°C° 0 mm 3 m/s 752 mmHg 36%
23:00 +16°C° 0 mm 3 m/s 752 mmHg 37%

19 Abril, Segunda-feira

Tempo Temperatura Precipitação Vento Pressão Humidade
00:00 +14°C° 0 mm 3 m/s 752 mmHg 39%
01:00 +14°C° 0 mm 3 m/s 752 mmHg 40%
02:00 +13°C° 0 mm 3 m/s 752 mmHg 41%
03:00 +13°C° 0 mm 3 m/s 752 mmHg 42%
04:00 +13°C° 0 mm 3 m/s 752 mmHg 43%
05:00 +14°C° 0 mm 2 m/s 752 mmHg 41%
06:00 +15°C° 0 mm 2 m/s 752 mmHg 40%
07:00 +16°C° 0 mm 1 m/s 752 mmHg 38%
08:00 +17°C° 0 mm 2 m/s 752 mmHg 35%
09:00 +18°C° 0 mm 2 m/s 752 mmHg 33%
10:00 +19°C° 0 mm 3 m/s 752 mmHg 30%
11:00 +20°C° 0 mm 4 m/s 752 mmHg 30%
12:00 +20°C° 0 mm 5 m/s 752 mmHg 30%
13:00 +21°C° 0 mm 6 m/s 752 mmHg 30%
14:00 +18°C° 0 mm 8 m/s 752 mmHg 36%
15:00 +16°C° 0 mm 9 m/s 753 mmHg 43%
16:00 +13°C° 0 mm 10 m/s 753 mmHg 50%
17:00 +12°C° 0 mm 9 m/s 753 mmHg 49%
18:00 +11°C° 0 mm 9 m/s 754 mmHg 49%
19:00 +10°C° 0 mm 8 m/s 754 mmHg 49%
20:00 +10°C° 0 mm 8 m/s 754 mmHg 43%
21:00 +10°C° 0 mm 7 m/s 754 mmHg 38%
22:00 +9°C° 0 mm 7 m/s 754 mmHg 32%
23:00 +9°C° 0 mm 7 m/s 755 mmHg 32%
Mostrar mais

Necessitamos do seu Consentimento

A Meteoprog e os seus Fornecedores de Serviços podem armazenar e aceder a dados pessoais como cookies, identificadores do dispositivo ou outras tecnologias semelhantes existentes no seu dispositivo e processar estes dados para personalizar conteúdos e anúncios, assim como funcionalidades nas redes sociais e análise de tráfego.

  • Armazenar e/ou aceder a informações no seu dispositivo

    Os cookies, identificadores do dispositivo ou outras informações podem ser armazenados ou acedidos no seu dispositivo, para os fins acima indicados.

  • Anúncios e conteúdos personalizados, medição de anúncios e conteúdos, dados sobre o público-alvo e desenvolvimento de produtos

    Os anúncios e os conteúdos podem ser personalizados com base num perfil. Podem ser adicionados dados adicionais para uma maior personalização dos anúncios e dos conteúdos. A eficácia dos anúncios e dos conteúdos pode ser medida. Podem ser obtidas informações sobre o público que visualizou os anúncios e os conteúdos. Estes dados podem ser usados para desenvolver ou melhorar sistemas, softwares ou a experiência do utilizador.

Ao clicar em "Eu concordo”, permitirá o uso de cookies, identificadores do dispositivo e web beacons mencionados ou outras tecnologias semelhantes. As configurações do navegador do seu dispositivo podem ser alteradas.

Para certos fins, podem ser invocados interesses legítimos ao invés de consentimento. Pode ler mais informação sobre este assunto na nossa Política de Privacidade e Cookies.